RIEDLINGN Weather Reports


time (UTC)temp
C
wind
direction
speed
KPH
gust
KPH
rain 1hr
cm
rain 24hr
cm
rain mn
cm
humidity
%
barometer
mb
20260507050213 7 240 4.8 0.0 0.00 0.00 0.03 96 1018.1
20260507043211 6 250 1.6 0.0 0.00 0.00 0.03 96 1017.7
20260507040216 6 211 3.2 0.0 0.00 0.00 0.00 96 1017.4
20260507033211 6 227 6.4 0.0 0.00 0.00 0.00 96 1017.2
20260507030211 5 213 4.8 0.0 0.00 0.00 0.00 95 1017.0
20260507023211 5 230 0.0 0.0 0.00 0.00 0.00 95 1016.9
20260507020211 5 212 1.6 0.0 0.00 0.00 0.00 95 1016.8
20260507013212 5 294 3.2 0.0 0.00 0.00 0.00 95 1016.7
20260507010211 5 268 4.8 0.0 0.00 0.00 0.00 95 1016.5
20260507003209 6 246 1.6 0.0 0.00 0.00 0.00 94 1016.4
20260507000209 6 246 0.0 0.0 0.00 0.00 0.00 94 1016.1
20260506233209 7 215 1.6 0.0 0.00 0.00 0.00 94 1016.2
20260506230209 7 220 0.0 0.0 0.00 0.00 0.00 94 1016.1
20260506223209 7 192 3.2 0.0 0.00 0.00 0.00 94 1016.0
20260506213209 7 198 3.2 0.0 0.00 0.00 0.81 93 1015.6
20260506210210 8 267 1.6 0.0 0.00 0.00 0.81 93 1015.5
20260506203210 8 267 3.2 0.0 0.00 0.00 0.81 93 1015.4
20260506200210 8 184 9.7 0.0 0.00 0.00 0.81 93 1015.3
20260506193215 8 173 9.7 0.0 0.00 0.00 0.81 93 1014.9
20260506190211 9 189 4.8 0.0 0.00 0.00 0.81 92 1014.4
20260506183209 9 253 11.3 0.0 0.00 0.00 0.81 93 1014.0
20260506180216 10 256 6.4 0.0 0.00 0.00 0.81 93 1013.9
20260506173210 10 198 11.3 0.0 0.00 0.00 0.81 93 1013.3
20260506170215 10 279 8.0 0.0 0.00 0.00 0.79 93 1013.0
20260506163210 10 181 8.0 0.0 0.00 0.00 0.79 92 1013.1
20260506160210 10 227 16.1 0.0 0.00 0.00 0.69 92 1013.0
20260506153210 10 229 27.4 0.0 0.00 0.00 0.61 91 1012.8
20260506150210 12 171 24.1 0.0 0.00 0.00 0.18 87 1012.0
20260506143210 15 224 14.5 0.0 0.00 0.00 0.00 73 1010.8
20260506140210 16 261 9.7 0.0 0.00 0.00 0.00 65 1010.6
20260506133211 16 233 9.7 0.0 0.00 0.00 0.00 63 1010.6
20260506130211 16 270 6.4 0.0 0.00 0.00 0.00 63 1010.7
20260506123210 17 257 9.7 0.0 0.00 0.00 0.00 60 1010.7
20260506120210 16 130 8.0 0.0 0.00 0.00 0.00 64 1010.6
20260506113217 16 130 8.0 0.0 0.00 0.00 0.00 64 1010.7
20260506110210 15 61 4.8 0.0 0.00 0.00 0.00 71 1010.9
20260506100213 14 79 3.2 0.0 0.00 0.00 0.00 75 1011.5
20260506093211 14 131 6.4 0.0 0.00 0.00 0.00 80 1011.7
20260506090211 13 202 3.2 0.0 0.00 0.00 0.00 85 1011.5
20260506083211 12 271 3.2 0.0 0.00 0.00 0.00 89 1011.6
20260506080212 11 269 4.8 0.0 0.00 0.00 0.00 92 1011.5
20260506073211 10 177 6.4 0.0 0.00 0.00 0.00 93 1011.9
20260506070212 10 177 6.4 0.0 0.00 0.00 0.00 93 1012.0
20260506060210 10 137 1.6 0.0 0.00 0.00 0.00 95 1011.7